Regional Weather Roundup
Issued by NWS Sioux Falls, SD

Home | Current Version | Previous Version | Text Only | Print | Product List | Glossary On
Versions: 1 2 3 4 5 6 7 8 9 10 11 12 13 14 15 16 17 18 19 20 21 22 23 24 25 26 27 28 29 30 31 32 33 34 35 36 37 38 39 40 41 42 43 44 45 46 47 48 49 50
000
ASUS43 KFSD 291902
RWRFSD

WEATHER ROUNDUP FOR SE SOUTH DAKOTA/SW MINNESOTA/NW IOWA
NATIONAL WEATHER SERVICE SIOUX FALLS SD
200 PM CDT THU SEP 29 2016

NOTE: "FAIR" INDICATES FEW OR NO CLOUDS BELOW 12,000 FEET WITH NO
SIGNIFICANT WEATHER AND OR OBSTRUCTIONS TO VISIBILITY.


SDZ038>040-050-052>070-292000-
SOUTHEAST SOUTH DAKOTA

CITY           SKY/WX    TMP DP  RH WIND       PRES   REMARKS
CHAMBERLAIN    SUNNY     69  47  44 SE12      30.38F
HURON          SUNNY     66  47  50 SE9       30.41F
MADISON        FAIR      63  46  55 NE7       30.43F
MITCHELL       SUNNY     67  47  48 S8        30.42F
SIOUX FALLS    MOSUNNY   66  49  54 VRB3      30.42F
WINNER         FAIR      71  45  39 SE17G24   30.36F
YANKTON        SUNNY     64  48  55 CALM      30.40F
$$

MNZ071-072-080-081-089-090-097-098-292000-
SOUTHWEST MINNESOTA

CITY           SKY/WX    TMP DP  RH WIND       PRES   REMARKS
FAIRMONT       SUNNY     65  50  58 VRB7      30.44F
JACKSON        SUNNY     64  46  52 E6        30.44F
LUVERNE        SUNNY     64  45  48 E5        30.43F
MARSHALL       MOSUNNY   62  48  60 VRB5      30.45F
MONTEVIDEO     CLOUDY    64  48  55 SE7       30.47F
PIPESTONE      SUNNY     64  45  48 SE5       30.43F
REDWOOD FALLS  PTSUNNY   64  47  53 VRB3      30.44F
TRACY          MOSUNNY   64  51  62 E5        30.45F
WINDOM         MOSUNNY   64  48  55 E8        30.44F
WORTHINGTON    PTSUNNY   64  49  57 NE8       30.44F
$$

IAZ001>003-012>014-020>022-031-032-NEZ013-014-SDZ071-292000-
NORTHWEST IOWA

CITY           SKY/WX    TMP DP  RH WIND       PRES   REMARKS
CHEROKEE       PTSUNNY   67  52  59 N8        30.41F
DENISON        MOSUNNY   68  48  49 NE8G15    30.38F
ESTHERVILLE    SUNNY     61  53  75 NE7       30.44F
LE MARS          N/A    N/A N/A N/A MISG        N/A
SHELDON        PTSUNNY   66  48  52 VRB5      30.41F
SIOUX CITY     PTSUNNY   68  50  52 N7        30.41F
SPENCER        MOSUNNY   66  50  56 NE7       30.43F
STORM LAKE     SUNNY     66  46  48 NE7       30.42F
$$

ABBREVIATIONS USED IN REMARKS
   TC - TEMPERATURE IN CELSIUS
  WCI - WIND CHILL INDEX
   HX - HEAT INDEX
  VSB - VISIBILITY




USA.gov is the U.S. government's official web portal to all federal, state and local government web resources and services.